This demonstration page uses our WeatherBlox Daily Observations layout. Learn more.

Left ArrowRight Arrow

53.62937, 11.41316

Hourly Observations for January 2, 2016

Temp ( °F °C ) Dew Point ( °F °C ) Humidity (%) Winds ( mph kmh ) Pressure ( in mb ) Visibility ( mi km ) Precip ( " mm )
6:50 am 06:50 Cloudy 36 2 34 1 93 93 ESE 9 15 30.18 1022 5 8 N/A
7:20 am 07:20 Mostly Cloudy 36 2 34 1 93 93 ESE 9 15 30.18 1022 6 9 N/A
7:50 am 07:50 Mostly Cloudy 36 2 34 1 93 93 ESE 9 15 30.18 1022 30 48 N/A
8:20 am 08:20 Mostly Cloudy 34 1 34 1 100 100 E 12 19 30.18 1022 30 48 N/A
8:50 am 08:50 Mostly Cloudy 34 1 34 1 100 100 E 12 19 30.18 1022 5 8 N/A
9:20 am 09:20 Mostly Cloudy 34 1 34 1 100 100 ESE 12 19 30.18 1022 4 6 N/A
9:50 am 09:50 Mostly Cloudy 34 1 34 1 100 100 E 12 19 30.18 1022 4 6 N/A
10:20 am 10:20 Mostly Cloudy 34 1 34 1 100 100 ESE 8 13 30.18 1022 30 48 N/A
10:50 am 10:50 Mostly Cloudy 34 1 32 0 93 93 E 13 20 30.18 1022 30 48 N/A
11:20 am 11:20 Mostly Cloudy 34 1 32 0 93 93 ESE 9 15 30.18 1022 30 48 N/A
11:50 am 11:50 Mostly Cloudy 34 1 32 0 93 93 E 13 20 30.15 1021 4 7 N/A
12:20 pm 12:20 Mostly Cloudy 32 0 30 -1 93 93 ESE 12 19 30.15 1021 4 6 N/A
12:50 pm 12:50 Mostly Cloudy with Mist and Fog 32 0 30 -1 93 93 E 16 26 30.15 1021 2 4 N/A
1:20 pm 13:20 Mostly Cloudy with Mist and Fog 30 -1 30 -1 100 100 ESE 12 19 30.15 1021 2 3 N/A
1:50 pm 13:50 Mostly Cloudy with Mist and Fog 30 -1 28 -2 93 93 ESE 13 20 30.15 1021 3 4 N/A
2:20 pm 14:20 Mostly Cloudy with Mist and Fog 28 -2 27 -3 93 93 E 15 24 30.15 1021 2 4 N/A
2:50 pm 14:50 Mostly Cloudy with Mist and Fog 28 -2 27 -3 93 93 ESE 12 19 30.15 1021 2 4 N/A
3:20 pm 15:20 Mostly Cloudy with Mist and Fog 28 -2 27 -3 93 93 ESE 12 19 30.15 1021 3 5 N/A
3:50 pm 15:50 Mostly Cloudy 28 -2 25 -4 86 86 ESE 13 20 30.15 1021 4 7 N/A
4:20 pm 16:20 Mostly Cloudy 28 -2 25 -4 86 86 ESE 13 20 30.15 1021 4 7 N/A
4:50 pm 16:50 Mostly Cloudy 28 -2 23 -5 80 80 E 15 24 30.18 1022 30 48 N/A
5:20 pm 17:20 Mostly Cloudy 27 -3 23 -5 86 86 E 14 22 30.18 1022 30 48 N/A
5:50 pm 17:50 Mostly Cloudy 25 -4 21 -6 86 86 E 13 20 30.18 1022 30 48 N/A
6:20 pm 18:20 Mostly Cloudy 25 -4 18 -8 74 74 E 16 26 30.18 1022 30 48 N/A
6:50 pm 18:50 Mostly Cloudy 23 -5 18 -8 80 80 E 13 20 30.18 1022 30 48 N/A
7:20 pm 19:20 Mostly Cloudy 23 -5 16 -9 74 74 E 16 26 30.18 1022 30 48 N/A
7:50 pm 19:50 Mostly Cloudy 23 -5 16 -9 74 74 E 17 28 30.18 1022 30 48 N/A

Powered by AerisWeather